HADES LTFM-EHAM

Flight info

Callsign HADES
Flight time 2h 51m
Altitude 43000
Route TUDBU DCT ETUBA DCT ELDET DCT BACAM DCT SODGO DCT INVED DCT DITIS DCT VARIK DCT KATCE DCT NORKU
Aircraft C700/M-SBDGHM1RWXY/LB2

Departure

Time 2026-05-06 08:53
Airport İstanbul Airport (LTFM)

Arrival

Time 2026-05-06 11:45
Airport Amsterdam Airport Schiphol (EHAM)
Time Latitude Longitude Altitude Speed Heading
2026-05-06 08:35 41.25462 28.76142 173 ft 0 kts 270°
2026-05-06 08:43 41.25462 28.76123 173 ft 6 kts 270°
2026-05-06 08:43 41.25433 28.76041 173 ft 14 kts 210°
2026-05-06 08:43 41.25362 28.75947 173 ft 17 kts 270°
2026-05-06 08:43 41.25361 28.75779 173 ft 20 kts 270°
2026-05-06 08:44 41.25358 28.75588 173 ft 22 kts 269°
2026-05-06 08:44 41.25373 28.75411 173 ft 11 kts 330°
2026-05-06 08:44 41.25467 28.75398 173 ft 16 kts 359°
2026-05-06 08:44 41.25595 28.75397 173 ft 20 kts 360°
2026-05-06 08:45 41.25738 28.75400 173 ft 21 kts
2026-05-06 08:45 41.25892 28.75390 174 ft 23 kts 359°
2026-05-06 08:45 41.26055 28.75390 174 ft 24 kts 360°
2026-05-06 08:45 41.26225 28.75388 174 ft 25 kts 357°
2026-05-06 08:46 41.26404 28.75384 174 ft 26 kts 360°
2026-05-06 08:46 41.26586 28.75377 174 ft 27 kts 360°
2026-05-06 08:46 41.26777 28.75377 174 ft 28 kts 359°
2026-05-06 08:46 41.26879 28.75335 174 ft 12 kts 259°
2026-05-06 08:47 41.26877 28.75200 173 ft 18 kts 268°
2026-05-06 08:47 41.26876 28.74993 173 ft 26 kts 270°
2026-05-06 08:47 41.26872 28.74736 173 ft 29 kts 268°
2026-05-06 08:47 41.26960 28.74515 172 ft 28 kts 273°
2026-05-06 08:48 41.26956 28.74246 172 ft 30 kts 271°
2026-05-06 08:48 41.26956 28.73995 171 ft 22 kts 270°
2026-05-06 08:48 41.26951 28.73765 171 ft 27 kts 269°
2026-05-06 08:48 41.26947 28.73504 171 ft 29 kts 267°
2026-05-06 08:49 41.26942 28.73228 170 ft 30 kts 272°
2026-05-06 08:49 41.26942 28.73013 170 ft 20 kts 253°
2026-05-06 08:49 41.26896 28.72980 171 ft 8 kts 160°
2026-05-06 08:49 41.26828 28.72988 170 ft 14 kts 191°
2026-05-06 08:50 41.26695 28.72984 170 ft 24 kts 172°
2026-05-06 08:50 41.26585 28.72907 171 ft 16 kts 274°
2026-05-06 08:50 41.26584 28.72730 172 ft 22 kts 265°
2026-05-06 08:50 41.26576 28.72498 173 ft 29 kts 259°
2026-05-06 08:51 41.26512 28.72213 170 ft 36 kts 266°
2026-05-06 08:51 41.26511 28.71855 171 ft 41 kts 271°
2026-05-06 08:51 41.26505 28.71470 171 ft 40 kts 270°
2026-05-06 08:51 41.26496 28.71110 172 ft 38 kts 268°
2026-05-06 08:52 41.26496 28.70782 174 ft 26 kts 281°
2026-05-06 08:52 41.26542 28.70741 174 ft 0 kts 358°
2026-05-06 08:52 41.26544 28.70741 174 ft 4 kts 358°
2026-05-06 08:53 41.26837 28.70735 174 ft 87 kts 359°
2026-05-06 08:53 41.27724 28.70738 255 ft 160 kts
2026-05-06 08:53 41.28933 28.70683 1044 ft 186 kts 360°
2026-05-06 08:53 41.30234 28.70598 2191 ft 199 kts 344°
2026-05-06 08:54 41.31429 28.69638 3452 ft 206 kts 323°
2026-05-06 08:54 41.32676 28.68454 4545 ft 232 kts 327°
2026-05-06 08:54 41.34096 28.67292 5780 ft 248 kts 330°
2026-05-06 08:54 41.35590 28.66134 7441 ft 250 kts 332°
2026-05-06 08:55 41.37121 28.64935 8863 ft 259 kts 333°
2026-05-06 08:55 41.38808 28.64040 10332 ft 264 kts 346°
2026-05-06 08:55 41.40703 28.63575 11340 ft 290 kts 352°
2026-05-06 08:55 41.42803 28.63173 12281 ft 318 kts 352°
2026-05-06 08:56 41.45052 28.62721 13297 ft 339 kts 351°
2026-05-06 08:56 41.47401 28.62239 14787 ft 344 kts 352°
2026-05-06 08:56 41.49788 28.61757 16139 ft 351 kts 352°
2026-05-06 08:56 41.52230 28.61267 17443 ft 358 kts 351°
2026-05-06 08:57 41.54681 28.60524 18648 ft 366 kts 342°
2026-05-06 08:57 41.57051 28.59183 19678 ft 372 kts 333°
2026-05-06 08:57 41.59249 28.57285 20599 ft 381 kts 323°
2026-05-06 08:57 41.61179 28.54868 21473 ft 389 kts 314°
2026-05-06 08:58 41.63006 28.52167 22357 ft 395 kts 314°
2026-05-06 08:58 41.64876 28.49421 23236 ft 401 kts 314°
2026-05-06 08:58 41.66670 28.46520 24014 ft 409 kts 306°
2026-05-06 08:58 41.68100 28.43207 24811 ft 414 kts 297°
2026-05-06 08:59 41.69267 28.39649 25576 ft 418 kts 295°
2026-05-06 08:59 41.70426 28.36099 26307 ft 422 kts 296°
2026-05-06 08:59 41.71605 28.32504 27160 ft 423 kts 296°
2026-05-06 08:59 41.72794 28.28867 27865 ft 428 kts 296°
2026-05-06 09:00 41.73992 28.25186 28591 ft 431 kts 296°
2026-05-06 09:00 41.75182 28.21522 29648 ft 426 kts 296°
2026-05-06 09:00 41.76362 28.17889 30596 ft 423 kts 296°
2026-05-06 09:00 41.77522 28.14319 31374 ft 422 kts 296°
2026-05-06 09:01 41.78699 28.10715 32141 ft 420 kts 297°
2026-05-06 09:01 41.80119 28.07319 32878 ft 415 kts 306°
2026-05-06 09:01 41.81830 28.04200 33607 ft 413 kts 309°
2026-05-06 09:01 41.83548 28.01156 34240 ft 413 kts 309°
2026-05-06 09:02 41.85273 27.98070 34815 ft 412 kts 309°
2026-05-06 09:02 41.86993 27.94996 35355 ft 412 kts 309°
2026-05-06 09:02 41.88717 27.91926 35884 ft 412 kts 309°
2026-05-06 09:02 41.90442 27.88847 36400 ft 412 kts 308°
2026-05-06 09:03 41.92167 27.85760 36897 ft 412 kts 308°
2026-05-06 09:03 41.93892 27.82670 37356 ft 411 kts 308°
2026-05-06 09:03 41.95587 27.79634 37794 ft 411 kts 308°
2026-05-06 09:03 41.97410 27.76669 38196 ft 410 kts 315°
2026-05-06 09:04 41.99428 27.73948 38601 ft 410 kts 315°
2026-05-06 09:04 42.01435 27.71200 38941 ft 411 kts 315°
2026-05-06 09:04 42.03438 27.68434 39233 ft 411 kts 315°
2026-05-06 09:04 42.05413 27.65728 39512 ft 411 kts 315°
2026-05-06 09:05 42.07423 27.62985 39778 ft 412 kts 315°
2026-05-06 09:05 42.09432 27.60232 40056 ft 412 kts 315°
2026-05-06 09:05 42.11438 27.57470 40333 ft 412 kts 315°
2026-05-06 09:05 42.13444 27.54709 40584 ft 412 kts 315°
2026-05-06 09:06 42.15462 27.51935 40833 ft 413 kts 315°
2026-05-06 09:06 42.17473 27.49168 41079 ft 413 kts 315°
2026-05-06 09:06 42.19486 27.46391 41328 ft 414 kts 315°
2026-05-06 09:06 42.21478 27.43641 41573 ft 414 kts 315°
2026-05-06 09:07 42.23490 27.40861 41818 ft 414 kts 315°
2026-05-06 09:07 42.25508 27.38071 42039 ft 415 kts 315°
2026-05-06 09:07 42.27533 27.35268 42273 ft 413 kts 314°
2026-05-06 09:08 42.31541 27.29710 42589 ft 415 kts 314°
2026-05-06 09:08 42.33557 27.26912 42813 ft 415 kts 314°
2026-05-06 09:08 42.35574 27.24110 43033 ft 416 kts 314°
2026-05-06 09:09 42.39632 27.18464 43084 ft 424 kts 314°
2026-05-06 09:09 42.43801 27.12648 43090 ft 433 kts 314°
2026-05-06 09:10 42.48049 27.06714 43084 ft 443 kts 314°
2026-05-06 09:10 42.52361 27.00676 43081 ft 451 kts 314°
2026-05-06 09:11 42.56739 26.94532 43083 ft 458 kts 314°
2026-05-06 09:11 42.61207 26.88249 43069 ft 465 kts 314°
2026-05-06 09:12 42.65709 26.81904 43064 ft 465 kts 314°
2026-05-06 09:12 42.70182 26.75585 43055 ft 461 kts 314°
2026-05-06 09:13 42.74592 26.69343 43063 ft 458 kts 314°
2026-05-06 09:13 42.79014 26.63068 43055 ft 459 kts 314°
2026-05-06 09:14 42.83149 26.56476 43051 ft 462 kts 306°
2026-05-06 09:14 42.86980 26.49409 43055 ft 465 kts 307°
2026-05-06 09:15 42.90834 26.42292 43049 ft 466 kts 307°
2026-05-06 09:15 42.94678 26.35161 43042 ft 465 kts 307°
2026-05-06 09:16 42.98507 26.28056 43037 ft 463 kts 306°
2026-05-06 09:16 43.02292 26.21003 43023 ft 462 kts 307°
2026-05-06 09:17 43.06086 26.13926 43014 ft 460 kts 306°
2026-05-06 09:17 43.09859 26.06865 43021 ft 458 kts 306°
2026-05-06 09:18 43.13638 25.99781 43018 ft 461 kts 306°
2026-05-06 09:18 43.17443 25.92627 43020 ft 466 kts 306°
2026-05-06 09:19 43.21226 25.85500 43023 ft 464 kts 306°
2026-05-06 09:19 43.25016 25.78341 43020 ft 461 kts 306°
2026-05-06 09:20 43.28769 25.71234 43014 ft 458 kts 306°
2026-05-06 09:20 43.32502 25.64149 43013 ft 460 kts 306°
2026-05-06 09:21 43.36268 25.56985 43014 ft 461 kts 306°
2026-05-06 09:21 43.40012 25.49843 43018 ft 463 kts 306°
2026-05-06 09:22 43.43782 25.42635 43016 ft 465 kts 306°
2026-05-06 09:22 43.47560 25.35396 43019 ft 463 kts 306°
2026-05-06 09:23 43.51296 25.28218 43019 ft 463 kts 306°
2026-05-06 09:23 43.55048 25.20992 43028 ft 467 kts 306°
2026-05-06 09:24 43.58828 25.13694 43017 ft 464 kts 306°
2026-05-06 09:24 43.62538 25.06512 43010 ft 459 kts 306°
2026-05-06 09:25 43.66234 24.99343 43009 ft 457 kts 306°
2026-05-06 09:25 43.69917 24.92178 43012 ft 460 kts 306°
2026-05-06 09:26 43.73031 24.86110 43012 ft 463 kts 305°
2026-05-06 09:26 43.76732 24.78877 43015 ft 463 kts 305°
2026-05-06 09:27 43.80444 24.71607 43013 ft 461 kts 305°
2026-05-06 09:27 43.84289 24.64058 43012 ft 460 kts 305°
2026-05-06 09:28 43.87999 24.56754 43013 ft 463 kts 305°
2026-05-06 09:28 43.91731 24.49513 43012 ft 464 kts 308°
2026-05-06 09:29 43.95864 24.42621 43019 ft 463 kts 309°
2026-05-06 09:29 43.99903 24.35642 43025 ft 467 kts 308°
2026-05-06 09:30 44.03995 24.28663 43016 ft 463 kts 309°
2026-05-06 09:30 44.08043 24.21702 43011 ft 459 kts 308°
2026-05-06 09:31 44.12031 24.14836 43017 ft 458 kts 309°
2026-05-06 09:31 44.16061 24.07884 43019 ft 461 kts 308°
2026-05-06 09:32 44.20080 24.00928 43017 ft 464 kts 308°
2026-05-06 09:32 44.24139 23.93893 43020 ft 466 kts 308°
2026-05-06 09:33 44.28199 23.86834 43020 ft 465 kts 308°
2026-05-06 09:33 44.32217 23.79834 43041 ft 463 kts 308°
2026-05-06 09:34 44.36258 23.72773 43042 ft 467 kts 308°
2026-05-06 09:34 44.40333 23.65639 43044 ft 468 kts 308°
2026-05-06 09:35 44.44373 23.58547 43027 ft 461 kts 308°
2026-05-06 09:35 44.48326 23.51590 43016 ft 457 kts 308°
2026-05-06 09:36 44.52269 23.44635 43015 ft 458 kts 308°
2026-05-06 09:36 44.56258 23.37580 43024 ft 462 kts 308°
2026-05-06 09:37 44.60239 23.30523 43023 ft 465 kts 308°
2026-05-06 09:37 44.64254 23.23389 43024 ft 462 kts 307°
2026-05-06 09:38 44.68240 23.16287 43028 ft 467 kts 307°
2026-05-06 09:38 44.72246 23.09135 43023 ft 461 kts 307°
2026-05-06 09:39 44.76185 23.02082 43011 ft 455 kts 307°
2026-05-06 09:39 44.80089 22.95074 43015 ft 455 kts 307°
2026-05-06 09:40 44.83996 22.88044 43021 ft 460 kts 307°
2026-05-06 09:40 44.89946 22.77305 43030 ft 465 kts 307°
2026-05-06 09:41 44.93897 22.70153 43028 ft 463 kts 307°
2026-05-06 09:41 44.97847 22.62981 43024 ft 459 kts 307°
2026-05-06 09:42 45.01761 22.55862 43019 ft 456 kts 307°
2026-05-06 09:42 45.05630 22.48804 43022 ft 457 kts 307°
2026-05-06 09:43 45.09547 22.41641 43024 ft 461 kts 307°
2026-05-06 09:43 45.13480 22.34431 43026 ft 462 kts 306°
2026-05-06 09:44 45.17377 22.27269 43024 ft 460 kts 306°
2026-05-06 09:44 45.21291 22.20057 43017 ft 460 kts 306°
2026-05-06 09:45 45.25190 22.12854 43020 ft 460 kts 306°
2026-05-06 09:45 45.29086 22.05640 43018 ft 459 kts 306°
2026-05-06 09:46 45.32956 21.98455 43015 ft 459 kts 306°
2026-05-06 09:46 45.36820 21.91263 43014 ft 459 kts 306°
2026-05-06 09:47 45.40698 21.84026 43013 ft 458 kts 306°
2026-05-06 09:47 45.44537 21.76844 43015 ft 457 kts 306°
2026-05-06 09:48 45.48389 21.69619 43011 ft 457 kts 305°
2026-05-06 09:48 45.52231 21.62394 43009 ft 457 kts 306°
2026-05-06 09:49 45.56057 21.55183 43008 ft 459 kts 305°
2026-05-06 09:49 45.59921 21.47879 43011 ft 460 kts 305°
2026-05-06 09:50 45.63818 21.40495 43012 ft 466 kts 305°
2026-05-06 09:50 45.67676 21.33168 43007 ft 460 kts 305°
2026-05-06 09:51 45.71497 21.25888 43013 ft 455 kts 305°
2026-05-06 09:51 45.75305 21.18616 43014 ft 457 kts 304°
2026-05-06 09:52 45.79126 21.11297 43022 ft 464 kts 304°
2026-05-06 09:52 45.82993 21.03878 43017 ft 462 kts 304°
2026-05-06 09:53 45.86805 20.96540 43001 ft 459 kts 304°
2026-05-06 09:53 45.90609 20.89201 42992 ft 456 kts 304°
2026-05-06 09:54 45.94367 20.81929 42985 ft 457 kts 304°
2026-05-06 09:54 45.98168 20.74557 42986 ft 459 kts 304°
2026-05-06 09:55 46.01978 20.67145 42990 ft 464 kts 304°
2026-05-06 09:55 46.05818 20.59661 42989 ft 462 kts 304°
2026-05-06 09:56 46.09610 20.52245 42980 ft 460 kts 304°
2026-05-06 09:56 46.13398 20.44819 42975 ft 458 kts 303°
2026-05-06 09:57 46.17265 20.37511 42983 ft 458 kts 307°
2026-05-06 09:57 46.20660 20.31579 42977 ft 461 kts 306°
2026-05-06 09:58 46.24739 20.24366 42984 ft 464 kts 306°
2026-05-06 09:58 46.28822 20.17166 42983 ft 466 kts 306°
2026-05-06 09:59 46.32923 20.09895 42982 ft 464 kts 306°
2026-05-06 09:59 46.36969 20.02711 42974 ft 462 kts 306°
2026-05-06 10:00 46.41024 19.95490 42962 ft 461 kts 306°
2026-05-06 10:00 46.45065 19.88274 42962 ft 459 kts 306°
2026-05-06 10:01 46.49083 19.81082 42960 ft 461 kts 306°
2026-05-06 10:01 46.53106 19.73863 42964 ft 463 kts 306°
2026-05-06 10:02 46.57173 19.66544 42960 ft 466 kts 306°
2026-05-06 10:02 46.61260 19.59169 42963 ft 468 kts 306°
2026-05-06 10:03 46.65332 19.51804 42957 ft 466 kts 306°
2026-05-06 10:03 46.69358 19.44501 42952 ft 463 kts 306°
2026-05-06 10:04 46.73399 19.37153 42954 ft 464 kts 306°
2026-05-06 10:04 46.77430 19.29801 42957 ft 467 kts 306°
2026-05-06 10:05 46.81505 19.22352 42950 ft 469 kts 306°
2026-05-06 10:05 46.85575 19.14889 42949 ft 468 kts 305°
2026-05-06 10:06 46.89606 19.07479 42940 ft 467 kts 305°
2026-05-06 10:06 46.93638 19.00047 42939 ft 466 kts 305°
2026-05-06 10:07 46.97665 18.92605 42935 ft 466 kts 305°
2026-05-06 10:07 47.01660 18.85200 42930 ft 466 kts 305°
2026-05-06 10:08 47.05687 18.77718 42935 ft 467 kts 305°
2026-05-06 10:08 47.09709 18.70222 42934 ft 468 kts 305°
2026-05-06 10:09 47.13737 18.62696 42926 ft 469 kts 305°
2026-05-06 10:09 47.17740 18.55197 42918 ft 469 kts 305°
2026-05-06 10:10 47.21768 18.47630 42933 ft 470 kts 304°
2026-05-06 10:10 47.25814 18.40008 42918 ft 471 kts 304°
2026-05-06 10:11 47.29835 18.32411 42915 ft 472 kts 304°
2026-05-06 10:11 47.33859 18.24789 42916 ft 472 kts 304°
2026-05-06 10:12 47.37884 18.17139 42910 ft 480 kts 304°
2026-05-06 10:12 47.41972 18.09360 42899 ft 470 kts 304°
2026-05-06 10:13 47.45926 18.01803 42891 ft 461 kts 304°
2026-05-06 10:13 47.49852 17.94277 42895 ft 468 kts 304°
2026-05-06 10:14 47.53853 17.86596 42905 ft 475 kts 304°
2026-05-06 10:14 47.57890 17.78817 42915 ft 476 kts 304°
2026-05-06 10:15 47.61912 17.71049 42911 ft 474 kts 304°
2026-05-06 10:15 47.65910 17.63303 42905 ft 472 kts 304°
2026-05-06 10:16 47.69905 17.55540 42900 ft 477 kts 304°
2026-05-06 10:16 47.73936 17.47688 42897 ft 478 kts 304°
2026-05-06 10:17 47.77940 17.39866 42879 ft 473 kts 304°
2026-05-06 10:17 47.81899 17.32105 42867 ft 469 kts 304°
2026-05-06 10:18 47.85849 17.24342 42859 ft 471 kts 304°
2026-05-06 10:18 47.89825 17.16504 42869 ft 480 kts 304°
2026-05-06 10:19 47.93835 17.08583 42876 ft 481 kts 304°
2026-05-06 10:19 47.97852 17.00621 42868 ft 473 kts 303°
2026-05-06 10:20 48.01754 16.92861 42860 ft 469 kts 303°
2026-05-06 10:20 48.05682 16.85029 42847 ft 473 kts 303°
2026-05-06 10:21 48.09633 16.77130 42863 ft 476 kts 303°
2026-05-06 10:21 48.13607 16.69159 42863 ft 477 kts 303°
2026-05-06 10:22 48.17563 16.61204 42861 ft 475 kts 303°
2026-05-06 10:22 48.21493 16.53277 42856 ft 472 kts 303°
2026-05-06 10:23 48.25402 16.45370 42853 ft 471 kts 303°
2026-05-06 10:23 48.29286 16.37487 42845 ft 473 kts 303°
2026-05-06 10:24 48.33207 16.29508 42848 ft 475 kts 303°
2026-05-06 10:24 48.37136 16.21489 42840 ft 481 kts 303°
2026-05-06 10:25 48.41118 16.13342 42852 ft 479 kts 303°
2026-05-06 10:25 48.45018 16.05335 42814 ft 469 kts 303°
2026-05-06 10:26 48.48863 15.97412 42818 ft 469 kts 302°
2026-05-06 10:26 48.52730 15.89427 42823 ft 474 kts 302°
2026-05-06 10:27 48.56628 15.81352 42833 ft 477 kts 302°
2026-05-06 10:27 48.60526 15.73257 42826 ft 473 kts 302°
2026-05-06 10:28 48.64360 15.65268 42819 ft 466 kts 302°
2026-05-06 10:28 48.68159 15.57325 42816 ft 467 kts 302°
2026-05-06 10:29 48.71980 15.49316 42829 ft 471 kts 302°
2026-05-06 10:29 48.75799 15.41288 42829 ft 474 kts 302°
2026-05-06 10:30 48.79681 15.33100 42824 ft 480 kts 301°
2026-05-06 10:30 48.83526 15.24978 42818 ft 467 kts 301°
2026-05-06 10:31 48.87256 15.17058 42814 ft 460 kts 301°
2026-05-06 10:31 48.91145 15.09100 42833 ft 478 kts 305°
2026-05-06 10:32 48.95380 15.01238 42830 ft 480 kts 305°
2026-05-06 10:32 48.99567 14.93350 42826 ft 477 kts 305°
2026-05-06 10:33 49.03735 14.85530 42822 ft 474 kts 304°
2026-05-06 10:33 49.07862 14.77730 42817 ft 471 kts 304°
2026-05-06 10:34 49.11986 14.69932 42828 ft 474 kts 304°
2026-05-06 10:34 49.16138 14.62048 42828 ft 479 kts 304°
2026-05-06 10:35 49.20307 14.54116 42827 ft 481 kts 304°
2026-05-06 10:35 49.24480 14.46149 42824 ft 478 kts 304°
2026-05-06 10:36 49.28621 14.38220 42817 ft 475 kts 304°
2026-05-06 10:36 49.32743 14.30300 42821 ft 476 kts 304°
2026-05-06 10:37 49.36883 14.22326 42828 ft 479 kts 304°
2026-05-06 10:37 49.41046 14.14281 42826 ft 482 kts 304°
2026-05-06 10:38 49.45213 14.06208 42821 ft 481 kts 304°
2026-05-06 10:38 49.49352 13.98161 42825 ft 478 kts 305°
2026-05-06 10:39 49.53437 13.90195 42814 ft 476 kts 304°
2026-05-06 10:39 49.57537 13.82173 42816 ft 478 kts 304°
2026-05-06 10:40 49.61656 13.74094 42824 ft 480 kts 305°
2026-05-06 10:40 49.65791 13.65958 42828 ft 483 kts 305°
2026-05-06 10:41 49.69926 13.57796 42821 ft 481 kts 305°
2026-05-06 10:41 49.74036 13.49658 42823 ft 479 kts 305°
2026-05-06 10:42 49.78127 13.41534 42819 ft 477 kts 305°
2026-05-06 10:42 49.82208 13.33403 42816 ft 477 kts 304°
2026-05-06 10:43 49.86268 13.25289 42820 ft 479 kts 304°
2026-05-06 10:44 49.92396 13.12996 42807 ft 482 kts 304°
2026-05-06 10:44 49.96502 13.04727 42816 ft 483 kts 304°
2026-05-06 10:45 49.99922 12.97819 42822 ft 484 kts 304°
2026-05-06 10:45 50.04021 12.89517 42826 ft 482 kts 304°
2026-05-06 10:46 50.08069 12.81293 42818 ft 481 kts 304°
2026-05-06 10:46 50.12133 12.73007 42821 ft 481 kts 304°
2026-05-06 10:47 50.16199 12.64695 42821 ft 481 kts 304°
2026-05-06 10:47 50.20262 12.56361 42808 ft 482 kts 304°
2026-05-06 10:48 50.24296 12.48059 42819 ft 483 kts 304°
2026-05-06 10:48 50.28357 12.39676 42790 ft 483 kts 304°
2026-05-06 10:49 50.32439 12.31310 42780 ft 482 kts 305°
2026-05-06 10:49 50.36535 12.22983 42777 ft 482 kts 304°
2026-05-06 10:50 50.40578 12.14665 42803 ft 481 kts 304°
2026-05-06 10:50 50.44656 12.06296 42805 ft 481 kts 304°
2026-05-06 10:51 50.48681 11.97981 42802 ft 480 kts 304°
2026-05-06 10:51 50.52724 11.89619 42798 ft 480 kts 304°
2026-05-06 10:52 50.56755 11.81246 42781 ft 479 kts 304°
2026-05-06 10:52 50.60774 11.72875 42770 ft 479 kts 304°
2026-05-06 10:53 50.64791 11.64479 42767 ft 479 kts 304°
2026-05-06 10:53 50.68811 11.56052 42772 ft 480 kts 304°
2026-05-06 10:54 50.72829 11.47602 42776 ft 482 kts 304°
2026-05-06 10:54 50.76830 11.39160 42781 ft 482 kts 304°
2026-05-06 10:55 50.80846 11.30658 42784 ft 484 kts 304°
2026-05-06 10:55 50.84868 11.22118 42778 ft 482 kts 304°
2026-05-06 10:56 50.88857 11.13617 42777 ft 480 kts 303°
2026-05-06 10:56 50.92829 11.05125 42774 ft 478 kts 303°
2026-05-06 10:57 50.96761 10.96691 42772 ft 477 kts 303°
2026-05-06 10:57 51.00718 10.88175 42775 ft 480 kts 303°
2026-05-06 10:58 51.04677 10.79632 42783 ft 483 kts 303°
2026-05-06 10:58 51.08668 10.70988 42780 ft 485 kts 303°
2026-05-06 10:59 51.12653 10.62328 42765 ft 483 kts 303°
2026-05-06 10:59 51.16596 10.53729 42760 ft 483 kts 303°
2026-05-06 11:00 51.20550 10.45081 42763 ft 482 kts 303°
2026-05-06 11:00 51.24493 10.36385 42760 ft 481 kts 301°
2026-05-06 11:01 51.27572 10.27038 42762 ft 477 kts 293°
2026-05-06 11:01 51.30488 10.17501 42765 ft 478 kts 293°
2026-05-06 11:02 51.33396 10.07912 42758 ft 478 kts 293°
2026-05-06 11:02 51.36298 9.98324 42760 ft 478 kts 293°
2026-05-06 11:03 51.39173 9.88780 42770 ft 478 kts 293°
2026-05-06 11:03 51.42059 9.79161 42772 ft 478 kts 293°
2026-05-06 11:04 51.44925 9.69575 42776 ft 478 kts 292°
2026-05-06 11:04 51.47796 9.59929 42772 ft 479 kts 292°
2026-05-06 11:05 51.50660 9.50272 42777 ft 479 kts 292°
2026-05-06 11:05 51.53506 9.40633 42777 ft 479 kts 292°
2026-05-06 11:06 51.56362 9.30925 42774 ft 479 kts 292°
2026-05-06 11:06 51.59197 9.21246 42771 ft 480 kts 292°
2026-05-06 11:07 51.62033 9.11527 42777 ft 480 kts 292°
2026-05-06 11:07 51.64864 9.01784 42792 ft 480 kts 292°
2026-05-06 11:08 51.67687 8.92028 42803 ft 480 kts 292°
2026-05-06 11:08 51.70505 8.82251 42804 ft 480 kts 292°
2026-05-06 11:09 51.73290 8.72545 42806 ft 480 kts 292°
2026-05-06 11:09 51.76097 8.62728 42805 ft 480 kts 292°
2026-05-06 11:10 51.78877 8.52957 42805 ft 480 kts 292°
2026-05-06 11:10 51.81663 8.43132 42808 ft 479 kts 292°
2026-05-06 11:11 51.84415 8.33381 42815 ft 479 kts 292°
2026-05-06 11:11 51.87183 8.23535 42816 ft 480 kts 291°
2026-05-06 11:12 51.89924 8.13740 42696 ft 482 kts 291°
2026-05-06 11:12 51.91318 8.08740 42056 ft 488 kts 291°
2026-05-06 11:12 51.92710 8.03752 41412 ft 479 kts 291°
2026-05-06 11:12 51.94068 7.98871 40791 ft 468 kts 291°
2026-05-06 11:13 51.95388 7.94109 40185 ft 458 kts 291°
2026-05-06 11:13 51.96681 7.89430 39589 ft 449 kts 291°
2026-05-06 11:13 51.97928 7.84914 39014 ft 442 kts 291°
2026-05-06 11:13 51.99182 7.80363 38422 ft 440 kts 290°
2026-05-06 11:14 52.00429 7.75827 37799 ft 438 kts 291°
2026-05-06 11:14 52.01671 7.71300 37222 ft 439 kts 291°
2026-05-06 11:14 52.02922 7.66734 36642 ft 447 kts 291°
2026-05-06 11:14 52.04181 7.62126 36059 ft 454 kts 291°
2026-05-06 11:15 52.05475 7.57389 35454 ft 460 kts 291°
2026-05-06 11:15 52.06782 7.52594 34841 ft 461 kts 291°
2026-05-06 11:15 52.08065 7.47877 34242 ft 460 kts 292°
2026-05-06 11:15 52.09357 7.43112 33605 ft 459 kts 292°
2026-05-06 11:16 52.10643 7.38360 32991 ft 457 kts 292°
2026-05-06 11:16 52.11912 7.33665 32396 ft 458 kts 292°
2026-05-06 11:16 52.13204 7.28869 31784 ft 462 kts 292°
2026-05-06 11:16 52.14504 7.24036 31170 ft 467 kts 292°
2026-05-06 11:17 52.15799 7.19211 30553 ft 470 kts 292°
2026-05-06 11:17 52.17118 7.14288 29933 ft 473 kts 293°
2026-05-06 11:17 52.18438 7.09354 29273 ft 471 kts 292°
2026-05-06 11:17 52.19725 7.04532 28657 ft 467 kts 293°
2026-05-06 11:18 52.21047 6.99725 28035 ft 459 kts 296°
2026-05-06 11:18 52.22731 6.95341 27437 ft 450 kts 306°
2026-05-06 11:18 52.24654 6.91461 26873 ft 441 kts 309°
2026-05-06 11:18 52.26607 6.87577 26291 ft 440 kts 308°
2026-05-06 11:19 52.28531 6.83713 25712 ft 437 kts 308°
2026-05-06 11:19 52.30442 6.79874 25145 ft 434 kts 308°
2026-05-06 11:19 52.32344 6.76061 24578 ft 430 kts 308°
2026-05-06 11:19 52.34224 6.72286 24012 ft 425 kts 308°
2026-05-06 11:20 52.36081 6.68551 23464 ft 420 kts 307°
2026-05-06 11:20 52.37908 6.64863 22870 ft 413 kts 307°
2026-05-06 11:20 52.39681 6.61269 22344 ft 408 kts 307°
2026-05-06 11:20 52.41467 6.57665 21810 ft 407 kts 307°
2026-05-06 11:21 52.43253 6.54050 21279 ft 407 kts 308°
2026-05-06 11:21 52.44951 6.50339 20739 ft 406 kts 301°
2026-05-06 11:21 52.46208 6.46270 20216 ft 402 kts 290°
2026-05-06 11:21 52.47005 6.41909 19693 ft 396 kts 280°
2026-05-06 11:22 52.47340 6.37446 19185 ft 392 kts 272°
2026-05-06 11:22 52.47551 6.32989 18670 ft 391 kts 272°
2026-05-06 11:22 52.47776 6.28536 18159 ft 390 kts 272°
2026-05-06 11:22 52.48001 6.24102 17612 ft 388 kts 274°
2026-05-06 11:23 52.48212 6.19766 17110 ft 384 kts 274°
2026-05-06 11:23 52.48422 6.15415 16611 ft 380 kts 274°
2026-05-06 11:23 52.48629 6.11108 16112 ft 377 kts 274°
2026-05-06 11:23 52.48836 6.06829 15629 ft 374 kts 274°
2026-05-06 11:24 52.49038 6.02593 15135 ft 370 kts 274°
2026-05-06 11:24 52.49236 5.98388 14650 ft 367 kts 275°
2026-05-06 11:24 52.49433 5.94215 14172 ft 364 kts 275°
2026-05-06 11:24 52.49625 5.90092 13694 ft 360 kts 275°
2026-05-06 11:25 52.49812 5.86065 13202 ft 356 kts 275°
2026-05-06 11:25 52.49995 5.82076 12758 ft 343 kts 275°
2026-05-06 11:25 52.50169 5.78270 12299 ft 325 kts 275°
2026-05-06 11:25 52.50332 5.74665 11890 ft 309 kts 275°
2026-05-06 11:26 52.50488 5.71225 11495 ft 296 kts 275°
2026-05-06 11:26 52.50587 5.69007 11240 ft 290 kts 275°
2026-05-06 11:26 52.50733 5.65734 10868 ft 285 kts 275°
2026-05-06 11:26 52.50877 5.62489 10502 ft 286 kts 274°
2026-05-06 11:27 52.51034 5.58148 10001 ft 288 kts 269°
2026-05-06 11:27 52.50855 5.55953 9892 ft 284 kts 258°
2026-05-06 11:27 52.50272 5.52931 9888 ft 280 kts 251°
2026-05-06 11:27 52.49615 5.49899 9890 ft 286 kts 251°
2026-05-06 11:28 52.48947 5.46782 9892 ft 291 kts 251°
2026-05-06 11:28 52.48244 5.43637 9890 ft 295 kts 247°
2026-05-06 11:28 52.47124 5.40646 9890 ft 322 kts 234°
2026-05-06 11:28 52.45710 5.37744 9893 ft 322 kts 232°
2026-05-06 11:29 52.44346 5.34889 9603 ft 299 kts 235°
2026-05-06 11:29 52.43263 5.32281 9280 ft 279 kts 238°
2026-05-06 11:29 52.42202 5.29636 8851 ft 276 kts 237°
2026-05-06 11:29 52.41115 5.27081 8403 ft 272 kts 235°
2026-05-06 11:30 52.40024 5.24566 7959 ft 269 kts 236°
2026-05-06 11:30 52.38953 5.22056 7526 ft 267 kts 237°
2026-05-06 11:30 52.37900 5.19571 7097 ft 265 kts 237°
2026-05-06 11:30 52.36845 5.17095 6672 ft 264 kts 236°
2026-05-06 11:31 52.35806 5.14668 6259 ft 262 kts 236°
2026-05-06 11:31 52.34755 5.12214 5812 ft 262 kts 236°
2026-05-06 11:31 52.33710 5.09769 5367 ft 262 kts 237°
2026-05-06 11:31 52.32666 5.07329 4933 ft 261 kts 236°
2026-05-06 11:32 52.31623 5.04891 4493 ft 261 kts 237°
2026-05-06 11:32 52.30630 5.02499 4386 ft 247 kts 237°
2026-05-06 11:32 52.29690 5.00211 4372 ft 239 kts 237°
2026-05-06 11:32 52.28755 4.97940 4375 ft 245 kts 237°
2026-05-06 11:33 52.27809 4.95640 4378 ft 248 kts 238°
2026-05-06 11:33 52.26936 4.93523 4390 ft 251 kts 237°
2026-05-06 11:33 52.25978 4.91201 4275 ft 253 kts 237°
2026-05-06 11:33 52.25004 4.88834 4120 ft 250 kts 237°
2026-05-06 11:34 52.24046 4.86490 3963 ft 245 kts 237°
2026-05-06 11:34 52.23106 4.84190 3804 ft 243 kts 237°
2026-05-06 11:34 52.22162 4.81887 3648 ft 245 kts 237°
2026-05-06 11:34 52.21216 4.79575 3496 ft 246 kts 238°
2026-05-06 11:35 52.20262 4.77247 3339 ft 247 kts 237°
2026-05-06 11:35 52.19305 4.74919 3190 ft 245 kts 237°
2026-05-06 11:35 52.18357 4.72614 3042 ft 244 kts 237°
2026-05-06 11:35 52.17408 4.70338 3001 ft 239 kts 237°
2026-05-06 11:36 52.16490 4.68145 2986 ft 239 kts 237°
2026-05-06 11:36 52.15537 4.65883 2990 ft 242 kts 238°
2026-05-06 11:36 52.14589 4.63636 2985 ft 236 kts 238°
2026-05-06 11:36 52.13678 4.61509 2981 ft 222 kts 237°
2026-05-06 11:37 52.12838 4.59511 2971 ft 208 kts 243°
2026-05-06 11:37 52.12606 4.57341 2980 ft 188 kts 287°
2026-05-06 11:37 52.13288 4.55668 2992 ft 175 kts 327°
2026-05-06 11:37 52.14296 4.54594 2996 ft 177 kts 333°
2026-05-06 11:38 52.15353 4.53525 2994 ft 179 kts 332°
2026-05-06 11:38 52.16412 4.52445 3007 ft 180 kts 332°
2026-05-06 11:38 52.17479 4.51364 3006 ft 180 kts 332°
2026-05-06 11:38 52.18618 4.50693 2985 ft 173 kts
2026-05-06 11:39 52.19700 4.51373 3000 ft 170 kts 32°
2026-05-06 11:39 52.20627 4.52574 2996 ft 172 kts 47°
2026-05-06 11:39 52.21337 4.54153 2810 ft 171 kts 54°
2026-05-06 11:39 52.21961 4.55696 2581 ft 154 kts 54°
2026-05-06 11:40 52.22485 4.57022 2395 ft 132 kts 56°
2026-05-06 11:40 52.22948 4.58228 2211 ft 119 kts 56°
2026-05-06 11:40 52.23382 4.59360 2055 ft 117 kts 56°
2026-05-06 11:40 52.23818 4.60498 1911 ft 120 kts 55°
2026-05-06 11:41 52.24269 4.61669 1768 ft 118 kts 55°
2026-05-06 11:41 52.24678 4.62736 1613 ft 116 kts 55°
2026-05-06 11:41 52.25121 4.63887 1441 ft 122 kts 55°
2026-05-06 11:41 52.25572 4.65060 1260 ft 122 kts 54°
2026-05-06 11:42 52.26025 4.66225 1089 ft 120 kts 54°
2026-05-06 11:42 52.26469 4.67382 926 ft 120 kts 54°
2026-05-06 11:42 52.26909 4.68540 771 ft 121 kts 56°
2026-05-06 11:42 52.27176 4.69799 827 ft 122 kts 76°
2026-05-06 11:43 52.27371 4.71219 815 ft 128 kts 69°
2026-05-06 11:43 52.27659 4.72575 786 ft 124 kts 66°
2026-05-06 11:43 52.27904 4.73910 744 ft 120 kts 67°
2026-05-06 11:44 52.28648 4.76301 466 ft 116 kts 49°
2026-05-06 11:44 52.29240 4.77205 297 ft 118 kts 38°
2026-05-06 11:44 52.29851 4.78047 132 ft 114 kts 45°
2026-05-06 11:44 52.30411 4.78881 -14 ft 97 kts 40°
2026-05-06 11:45 52.30793 4.79427 -12 ft 53 kts 41°
2026-05-06 11:45 52.30870 4.79687 -14 ft 20 kts 117°